Location: Gombori
(14.9797°N, 2.9419°W)
Time: 03:23:46
(UTC+00:00)

CZ-4 R/B - Pass Details

Date: 10 December 2021
Orbit: 531 x 594 km, 97.7° (Epoch: 27 January)

Event Time Altitude Azimuth Distance (km) Brightness Sun altitude
Rises 19:15:08 0° 165° (SSE) 2,810 5.0 -21.7°
Reaches altitude 10° 19:17:18 10° 163° (SSE) 1,905 4.1 -22.2°
Enters shadow 19:20:30 51° 148° (SSE) 730 1.7 -22.9°
